#timestamp,LO_Frequency,Hit,StdDev 
1511272815.2,286046995.0,N
1511272835.0,286046997.9,N
1511272835.9,286046997.9,N
1511272855.8,286046996.9,N
1511272875.6,286046996.5,N
1511272895.4,286046998.1,N
1511272915.2,286047000.2,N
1511272935.1,286047000.3,N
1511272936.0,286047000.3,N
1511272955.8,286047000.2,N
1511272975.6,286047005.4,N
1511272995.5,286047008.1,N
1511273015.3,286047006.9,N
1511273035.1,286047006.6,N
1511273055.9,286047006.9,N
1511273075.7,286047007.3,N
1511273095.5,286047009.6,N
1511273115.4,286047013.7,N
1511273135.2,286047016.8,N
1511273155.0,286047016.9,N
1511273155.9,286047016.9,N
1511273175.8,286047014.6,N
1511273195.6,286047011.6,N
1511273215.4,286047009.4,N
1511273235.3,286047006.4,N
1511273255.1,286047006.1,N
1511273256.0,286047006.1,N
1511273275.8,286047009.5,N
1511273295.6,286047015.4,N
1511273315.5,286047014.5,N
1511273335.3,286047014.3,N
1511273355.1,286047018.1,N
1511273375.9,286047019.6,N
1511273395.7,286047018.8,N
1511273415.5,286047011.4,N
1511273435.4,286047010.6,N
1511273455.2,286047012.4,N
1511273475.0,286047012.4,N
1511273475.9,286047012.4,N
1511273495.8,286047015.5,Y
1511273515.6,286047003.9,P
1511273535.4,286047002.3,N
1511273555.3,286047002.1,N
1511273575.1,286047002.4,N
1511273595.8,286046999.5,N
1511273615.7,286046995.5,N
1511273635.5,286046995.8,N
1511273655.3,286046995.3,N
1511273675.2,286046999.5,N
1511273695.9,286046997.6,N
1511273715.7,286046997.2,N
1511273735.6,286047000.5,N
1511273755.4,286046995.4,N
1511273775.2,286046994.0,N
1511273795.0,286046991.6,N
1511273795.9,286046991.6,N
1511273815.8,286046988.8,N
1511273835.6,286046990.6,N
1511273855.4,286046993.0,N
1511273875.3,286046994.7,N
1511273895.1,286046998.9,N
1511273915.8,286047000.9,N
1511273935.7,286047000.9,N
1511273955.5,286046996.9,N
1511273975.3,286046996.7,N
1511273995.2,286046999.2,N
1511274015.9,286047002.4,N
1511274035.7,286047001.6,N
1511274055.5,286047000.4,N
1511274075.4,286046998.6,N
1511274095.2,286046998.2,N
1511274115.0,286047000.5,N
1511274115.9,286047000.5,N
1511274135.8,286047002.0,N
1511274155.6,286047002.8,N
1511274175.4,286047000.5,N
1511274195.3,286047000.9,N
1511274215.1,286046997.7,N
1511274235.8,286046994.3,N
1511274255.7,286046990.6,N
1511274275.5,286046992.3,N
1511274295.3,286046991.0,N
1511274315.2,286046989.3,N
1511274335.9,286046988.6,N
1511274355.7,286046991.7,N
1511274375.6,286046989.0,N
1511274395.4,286046989.3,N
1511274415.2,286046988.8,N
1511274435.0,286046990.8,N
1511274436.0,286046990.8,N
1511274455.8,286046988.6,N
1511274475.6,286046989.4,N
1511274495.4,286046989.1,N
1511274515.3,286046990.0,N
1511274535.1,286046987.5,N
1511274555.8,286046989.4,N
1511274575.7,286046989.0,N
1511274595.5,286046987.3,N
1511274615.3,286046984.8,N
1511274635.2,286046981.0,Y
1511274655.9,286046986.9,P
1511274675.7,286046989.8,P
1511274695.6,286046987.2,P
1511274715.4,286046985.5,Y
1511274735.2,286046997.0,P
1511274755.1,286046996.4,N
1511274756.0,286046996.4,N
1511274775.8,286046999.4,N
1511274795.6,286046998.3,N
1511274815.5,286047001.3,N
1511274835.3,286046999.8,N
1511274855.1,286046999.4,N
1511274875.9,286047000.5,N
1511274895.7,286047002.0,N
1511274915.5,286047003.3,N
1511274935.3,286047007.2,N
1511274955.2,286047010.8,N
1511274975.0,286047009.0,N
1511274975.9,286047009.0,N
1511274995.7,286047007.5,N
1511275015.6,286047000.0,N
1511275035.4,286046999.5,N
1511275055.2,286046995.7,N
1511275075.1,286046995.2,N
1511275076.0,286046995.2,N
1511275095.8,286046998.8,N
1511275115.6,286047002.1,N
1511275135.5,286047000.5,N
1511275155.3,286047002.2,N
1511275175.1,286046999.8,N
1511275195.9,286047001.9,N
1511275215.7,286047000.2,N
1511275235.5,286046998.7,N
1511275255.3,286047003.9,N
1511275275.2,286047001.5,N
1511275295.0,286047004.6,N
1511275295.9,286047004.6,N
1511275315.7,286047004.8,N
1511275335.6,286047008.9,N
1511275355.4,286047006.6,N
1511275375.2,286047009.0,N
1511275395.1,286047008.8,N
1511275396.0,286047008.8,N
1511275415.8,286047010.7,N
1511275435.6,286047008.7,N
1511275455.5,286047010.3,N
1511275475.3,286047009.6,N
1511275495.1,286047009.2,N
1511275515.9,286047006.1,N
1511275535.7,286047006.9,N
1511275555.5,286047004.6,N
1511275575.4,286047010.8,N
1511275595.2,286047011.6,N
1511275615.0,286047010.5,N
1511275615.9,286047010.5,N
1511275635.7,286047009.5,N
1511275655.6,286047011.9,Y
1511275675.4,286047004.7,P
1511275695.2,286047003.4,P
1511275715.1,286047003.2,N
1511275716.0,286047003.2,N
1511275735.8,286047001.0,N
1511275755.6,286046998.6,N
1511275775.5,286046998.3,N
1511275795.3,286046997.6,N
1511275815.1,286046995.1,N
1511275835.9,286046994.4,N
1511275855.7,286046992.3,N
1511275875.5,286046997.6,N
1511275895.4,286046993.3,N
1511275915.2,286046993.6,N
1511275935.0,286046997.2,N
1511275935.9,286046997.2,N
1511275955.8,286046998.8,N
1511275975.6,286046997.8,N
1511275995.4,286046997.6,N
1511276015.2,286046998.1,N
1511276035.1,286046999.2,N
1511276036.0,286046999.2,N
1511276055.8,286046998.6,N
1511276075.6,286047000.6,N
1511276095.5,286047000.4,N
1511276115.3,286046995.3,N
1511276135.1,286046995.2,N
1511276155.9,286046997.2,N
1511276175.7,286046996.8,N
1511276195.5,286046996.9,N
1511276215.4,286046999.1,N
1511276235.2,286046997.2,N
1511276255.0,286046998.0,N
1511276255.9,286046998.0,N
1511276275.8,286046995.6,N
1511276295.6,286046997.9,N
1511276315.4,286046997.8,N
1511276335.2,286046995.6,N
1511276355.1,286046992.3,Y
1511276356.0,286046992.3,P
1511276375.8,286046996.1,N
1511276395.6,286046997.2,N
